GW1476 Weather Reports


time (UTC)temp
C
wind
direction
speed
KPH
gust
KPH
rain 1hr
cm
rain 24hr
cm
rain mn
cm
humidity
%
barometer
mb
20260905163312 27 225 1.6 1.6 0.00 0.00 0.56 92 1016.5
20260905162840 27 180 3.2 4.8 0.00 0.00 0.56 92 1016.2
20260905161951 27 225 4.8 4.8 0.00 0.00 0.56 93 1016.2
20260905161536 27 180 4.8 6.4 0.00 0.00 0.56 93 1016.5
20260905160649 26 180 4.8 9.7 0.00 0.00 0.56 94 1016.2
20260905155332 26 203 4.8 4.8 0.00 0.00 0.56 95 1016.5
20260905154847 26 158 0.0 4.8 0.00 0.00 0.56 93 1016.9
20260905154417 27 338 4.8 4.8 0.00 0.00 0.56 92 1016.9
20260905153527 26 23 4.8 4.8 0.00 0.00 0.56 95 1016.9
20260905153111 26 180 6.4 6.4 0.00 0.00 0.56 98 1016.9
20260905152653 25 23 6.4 8.0 0.00 0.00 0.56 98 1016.9
20260905152236 25 203 4.8 6.4 0.00 0.00 0.56 99 1016.9
20260905151347 25 270 3.2 6.4 0.00 0.00 0.56 99 1016.9
20260905150931 25 225 3.2 3.2 0.00 0.00 0.56 99 1016.5
20260905150513 25 113 0.0 0.0 0.00 0.00 0.56 98 1016.5
20260905150058 25 270 1.6 4.8 0.00 0.00 0.56 99 1016.2
20260905145641 25 225 4.8 4.8 0.00 0.00 0.56 99 1016.5
20260905145225 25 225 4.8 4.8 0.00 0.00 0.56 99 1016.9
20260905144808 26 203 1.6 3.2 0.00 0.00 0.56 97 1016.9
20260905144352 26 180 3.2 6.4 0.00 0.00 0.56 97 1016.9
20260905143935 26 203 0.0 4.8 0.00 0.00 0.56 96 1017.2
20260905143504 26 113 1.6 6.4 0.00 0.00 0.56 96 1017.2
20260905143032 25 293 0.0 0.0 0.00 0.00 0.56 99 1017.2
20260905142615 25 180 0.0 4.8 0.00 0.00 0.56 99 1017.2
20260905142159 25 180 3.2 4.8 0.00 0.00 0.56 99 1017.6
20260905141740 25 225 0.0 3.2 0.00 0.00 0.56 99 1017.9
20260905141325 24 203 1.6 1.6 0.00 0.00 0.56 99 1017.6
20260905140838 23 203 1.6 4.8 0.00 0.00 0.56 99 1017.9
20260905140422 23 180 0.0 0.0 0.00 0.00 0.56 99 1017.9
20260905140005 22 203 0.0 0.0 0.00 0.00 0.56 99 1018.2
20260905135547 22 158 0.0 0.0 0.00 0.00 0.56 99 1018.2
20260905135130 22 248 3.2 3.2 0.00 0.00 0.53 99 1018.2
20260905134658 22 293 0.0 0.0 0.00 0.00 0.46 99 1018.6
20260905134242 22 203 0.0 1.6 0.00 0.00 0.43 99 1018.2
20260905132919 22 338 0.0 0.0 0.00 0.00 0.43 99 1018.2
20260905132448 22 45 0.0 0.0 0.00 0.00 0.43 99 1018.2
20260905132017 22 338 0.0 0.0 0.00 0.00 0.43 99 1017.9
20260905131546 22 293 0.0 0.0 0.00 0.00 0.43 99 1017.9
20260905131129 22 113 0.0 3.2 0.00 0.00 0.43 99 1017.9
20260905130713 22 45 1.6 8.0 0.00 0.00 0.43 99 1017.6
20260905125822 22 90 9.7 9.7 0.00 0.00 0.41 99 1018.2
20260905125404 22 45 16.1 16.1 0.00 0.00 0.05 99 1017.9
20260905124933 22 0 4.8 4.8 0.00 0.00 0.00 99 1017.9
20260905124502 22 248 0.0 0.0 0.00 0.00 0.00 99 1017.6
20260905124046 22 225 0.0 0.0 0.00 0.00 0.00 99 1017.2
20260905123616 22 225 0.0 1.6 0.00 0.00 0.00 99 1017.2
20260905123200 22 23 3.2 4.8 0.00 0.00 0.00 99 1016.9
20260905122743 22 293 0.0 11.3 0.00 0.00 0.00 99 1017.2
20260905121838 22 45 12.9 12.9 0.00 0.00 0.00 99 1016.2
20260905120507 22 0 0.0 0.0 0.00 0.00 0.00 99 1016.2
20260905120050 22 225 0.0 0.0 0.00 0.00 0.00 99 1015.9
20260905115604 22 225 0.0 0.0 0.00 0.00 0.00 99 1015.9
20260905115132 21 248 0.0 0.0 0.00 0.00 0.00 99 1015.9
20260905114715 21 23 0.0 0.0 0.00 0.00 0.00 99 1015.9
20260905114245 21 23 0.0 0.0 0.00 0.00 0.00 99 1015.9
20260905113830 21 23 0.0 0.0 0.00 0.00 0.00 99 1015.9
20260905112459 21 315 0.0 0.0 0.00 0.00 0.00 99 1015.9
20260905111614 21 248 0.0 0.0 0.00 0.00 0.00 99 1015.9
20260905111157 21 293 0.0 0.0 0.00 0.00 0.00 99 1015.5
20260905110312 21 338 0.0 0.0 0.00 0.00 0.00 99 1015.9
20260905105857 21 293 0.0 0.0 0.00 0.00 0.00 99 1015.5
20260905104939 21 225 0.0 0.0 0.00 0.00 0.00 99 1015.9
20260905104523 21 225 0.0 0.0 0.00 0.00 0.00 99 1015.9
20260905104107 21 225 0.0 0.0 0.00 0.00 0.00 99 1015.5
20260905103651 21 248 0.0 0.0 0.00 0.00 0.00 99 1015.9
20260905103220 21 270 0.0 0.0 0.00 0.00 0.00 99 1015.5
20260905102335 21 315 0.0 0.0 0.00 0.00 0.00 99 1015.9
20260905101450 21 0 0.0 0.0 0.00 0.00 0.00 99 1015.5
20260905100047 21 338 0.0 0.0 0.00 0.00 0.00 99 1015.5
20260905095630 21 315 0.0 0.0 0.00 0.00 0.00 99 1015.5
20260905095211 21 270 0.0 0.0 0.00 0.00 0.00 99 1015.5
20260905094739 21 203 0.0 0.0 0.00 0.00 0.00 99 1015.5
20260905094309 21 248 0.0 0.0 0.00 0.00 0.00 99 1015.5
20260905093852 21 270 0.0 0.0 0.00 0.00 0.00 99 1015.5
20260905093437 21 270 0.0 0.0 0.00 0.00 0.00 99 1015.5
20260905093021 21 248 0.0 0.0 0.00 0.00 0.00 99 1015.9
20260905092604 21 270 0.0 0.0 0.00 0.00 0.00 99 1015.9
20260905092133 21 338 0.0 0.0 0.00 0.00 0.00 99 1015.5
20260905091703 21 158 0.0 0.0 0.00 0.00 0.00 99 1015.5
20260905091248 21 225 0.0 0.0 0.00 0.00 0.00 99 1015.5
20260905090834 21 203 0.0 0.0 0.00 0.00 0.00 99 1015.5
20260905085950 21 225 0.0 0.0 0.00 0.00 0.00 99 1015.5
20260905085537 22 225 0.0 0.0 0.00 0.00 0.00 99 1015.5
20260905084653 22 0 0.0 0.0 0.00 0.00 0.00 99 1015.5
20260905084237 22 23 0.0 0.0 0.00 0.00 0.00 99 1015.5
20260905083821 22 23 0.0 0.0 0.00 0.00 0.00 99 1015.5
20260905083351 22 270 0.0 0.0 0.00 0.00 0.00 99 1015.5
20260905082936 22 0 0.0 0.0 0.00 0.00 0.00 99 1015.5
20260905082519 22 293 0.0 0.0 0.00 0.00 0.00 99 1015.5
20260905082103 22 270 0.0 0.0 0.00 0.00 0.00 99 1015.5
20260905081647 22 338 0.0 0.0 0.00 0.00 0.00 99 1015.5
20260905081231 22 248 0.0 0.0 0.00 0.00 0.00 99 1015.5
20260905080810 22 270 0.0 0.0 0.00 0.00 0.00 99 1015.5
20260905080340 22 225 0.0 0.0 0.00 0.00 0.00 99 1015.5
20260905075923 22 270 0.0 0.0 0.00 0.00 0.00 99 1015.5
20260905075506 22 23 0.0 0.0 0.00 0.00 0.00 99 1015.5
20260905075034 22 225 0.0 0.0 0.00 0.00 0.00 99 1015.9
20260905074618 22 225 0.0 0.0 0.00 0.00 0.00 99 1015.9
20260905074146 22 203 0.0 0.0 0.00 0.00 0.00 99 1015.9
20260905073726 22 270 0.0 0.0 0.00 0.00 0.00 99 1015.9
20260905072825 22 338 0.0 0.0 0.00 0.00 0.00 99 1015.9
20260905072409 22 270 0.0 0.0 0.00 0.00 0.00 99 1016.2
20260905071939 22 270 0.0 0.0 0.00 0.00 0.00 99 1016.2
20260905071508 22 225 0.0 0.0 0.00 0.00 0.00 99 1016.2
20260905070623 22 225 0.0 0.0 0.00 0.00 0.00 99 1016.2
20260905070207 22 68 0.0 0.0 0.00 0.00 0.00 99 1016.2
20260905065752 22 270 0.0 0.0 0.00 0.00 0.00 99 1016.2
20260905065336 22 225 0.0 0.0 0.00 0.00 0.00 99 1016.5
20260905064921 22 225 0.0 0.0 0.00 0.00 0.00 99 1016.5
20260905064505 22 270 0.0 0.0 0.00 0.00 0.00 99 1016.5
20260905064050 22 270 0.0 0.0 0.00 0.00 0.00 99 1016.9
20260905063634 22 270 0.0 0.0 0.00 0.00 0.00 99 1016.9
20260905063219 22 23 0.0 0.0 0.00 0.00 0.00 99 1016.9
20260905062305 22 270 0.0 0.0 0.00 0.00 0.00 99 1016.9
20260905061830 22 248 0.0 0.0 0.00 0.00 0.00 99 1017.2
20260905061412 22 180 0.0 0.0 0.00 0.00 0.00 99 1017.2
20260905060955 22 270 0.0 0.0 0.00 0.00 0.00 99 1017.2
20260905060538 22 270 0.0 0.0 0.00 0.00 0.00 99 1017.2
20260905060122 22 270 0.0 0.0 0.00 0.00 0.00 99 1017.2
20260905055705 22 225 0.0 0.0 0.00 0.00 0.00 99 1017.2
20260905055249 22 225 0.0 0.0 0.00 0.00 0.00 99 1017.6
20260905054833 22 203 0.0 0.0 0.00 0.00 0.00 99 1017.6
20260905054419 22 225 0.0 0.0 0.00 0.00 0.00 99 1017.6
20260905054001 22 270 0.0 0.0 0.00 0.00 0.00 99 1017.6
20260905053115 22 270 0.0 0.0 0.00 0.00 0.00 99 1017.6
20260905052644 22 248 0.0 0.0 0.00 0.00 0.00 99 1017.6
20260905052229 22 180 0.0 0.0 0.00 0.00 0.00 99 1017.6
20260905051812 22 248 0.0 0.0 0.00 0.00 0.00 99 1017.9
20260905050912 22 225 0.0 0.0 0.00 0.00 0.00 99 1017.9
20260905050426 22 203 0.0 0.0 0.00 0.00 0.00 99 1017.9
20260905050010 22 180 0.0 0.0 0.00 0.00 0.00 99 1017.9
20260905045554 22 225 0.0 0.0 0.00 0.00 0.00 99 1017.9
20260905044237 22 225 0.0 0.0 0.00 0.00 0.00 99 1017.9
20260905043823 22 225 0.0 0.0 0.00 0.00 0.00 99 1017.9
20260905043405 22 225 0.0 0.0 0.00 0.00 0.00 99 1017.9
20260905042951 22 225 0.0 0.0 0.00 0.00 0.00 99 1017.9
20260905042048 22 225 0.0 0.0 0.00 0.00 0.00 99 1017.9
20260905041617 22 203 0.0 0.0 0.00 0.00 0.00 99 1017.6
20260905041200 22 225 0.0 0.0 0.00 0.00 0.00 99 1017.9
20260905040743 22 203 0.0 0.0 0.00 0.00 0.00 99 1017.9
20260905040311 22 203 0.0 0.0 0.00 0.00 0.00 99 1017.9
20260905035839 22 203 0.0 0.0 0.00 0.00 0.03 99 1017.9
20260905035424 22 225 0.0 0.0 0.00 0.00 0.03 99 1017.9
20260905035008 22 225 0.0 0.0 0.00 0.00 0.03 99 1017.9
20260905034553 22 203 0.0 0.0 0.00 0.00 0.03 99 1017.9
20260905034136 23 203 0.0 0.0 0.00 0.00 0.03 99 1017.9
20260905033721 23 203 0.0 0.0 0.00 0.00 0.03 99 1017.6
20260905033300 23 203 0.0 0.0 0.00 0.00 0.03 99 1017.6
20260905032842 23 203 0.0 0.0 0.00 0.00 0.03 99 1017.6
20260905032411 23 225 0.0 0.0 0.00 0.00 0.03 99 1017.6
20260905031520 23 225 0.0 0.0 0.00 0.00 0.03 99 1017.6
20260905031049 23 225 0.0 0.0 0.00 0.00 0.03 99 1017.2
20260905030618 23 225 0.0 0.0 0.00 0.00 0.03 99 1017.2
20260905030147 23 225 0.0 0.0 0.00 0.00 0.03 99 1017.2
20260905025729 23 225 0.0 0.0 0.00 0.00 0.03 99 1017.6
20260905025314 23 225 0.0 0.0 0.00 0.00 0.03 99 1017.2
20260905024859 23 293 0.0 0.0 0.00 0.00 0.03 99 1017.2
20260905024443 23 270 0.0 0.0 0.00 0.00 0.03 99 1017.2
20260905023539 23 180 0.0 0.0 0.00 0.00 0.03 99 1017.2
20260905023051 23 248 0.0 0.0 0.00 0.00 0.03 99 1017.2
20260905022621 23 248 0.0 0.0 0.00 0.00 0.03 99 1017.6
20260905022204 23 203 0.0 0.0 0.00 0.00 0.03 99 1017.6
20260905021730 23 180 0.0 0.0 0.00 0.00 0.03 99 1017.6
20260905021312 23 203 0.0 0.0 0.00 0.00 0.03 99 1017.6
20260905020857 23 270 0.0 0.0 0.00 0.00 0.03 99 1017.6
20260905020442 23 293 0.0 0.0 0.00 0.00 0.03 99 1017.6
20260905020026 23 225 0.0 0.0 0.00 0.00 0.03 99 1017.2
20260905015610 24 203 0.0 0.0 0.00 0.00 0.03 99 1017.6
20260905015140 24 225 0.0 0.0 0.00 0.00 0.03 99 1017.6
20260905014252 24 203 0.0 0.0 0.00 0.00 0.03 99 1017.2
20260905013836 24 203 0.0 0.0 0.00 0.00 0.03 99 1017.2
20260905013420 24 203 0.0 0.0 0.00 0.00 0.03 99 1017.2
20260905012532 25 225 0.0 0.0 0.00 0.00 0.03 99 1017.2
20260905012116 25 225 0.0 0.0 0.00 0.00 0.03 99 1017.2
20260905011657 25 203 0.0 3.2 0.00 0.00 0.03 99 1016.9
20260905010753 25 203 3.2 3.2 0.00 0.00 0.03 99 1016.5
20260905010336 25 225 1.6 3.2 0.00 0.00 0.03 99 1016.5
20260905005919 25 203 0.0 0.0 0.00 0.00 0.03 99 1016.5
20260905005503 25 203 0.0 0.0 0.00 0.00 0.03 99 1016.2
20260905004616 25 225 0.0 0.0 0.00 0.00 0.03 99 1015.9
20260905004159 25 203 0.0 0.0 0.00 0.00 0.03 99 1015.5
20260905003742 25 225 0.0 0.0 0.00 0.00 0.03 99 1015.5
20260905003312 25 270 0.0 0.0 0.00 0.00 0.03 99 1015.2
20260905002856 26 270 1.6 3.2 0.00 0.00 0.03 99 1015.2
20260905002439 26 0 3.2 3.2 0.00 0.00 0.03 99 1015.2
20260905002024 26 0 3.2 4.8 0.00 0.00 0.03 99 1015.2
20260905001609 26 225 0.0 0.0 0.00 0.00 0.03 99 1014.9
20260905001152 26 203 0.0 0.0 0.00 0.00 0.03 99 1015.2
20260905000735 26 270 0.0 0.0 0.00 0.00 0.03 98 1015.2
20260905000318 26 248 0.0 3.2 0.00 0.00 0.03 98 1015.5
20260904235856 26 180 1.6 3.2 0.00 0.00 0.03 97 1015.9
20260904235425 26 270 3.2 3.2 0.00 0.00 0.03 96 1015.9
20260904235008 27 225 0.0 0.0 0.00 0.00 0.03 96 1016.2
20260904234123 27 203 4.8 4.8 0.00 0.00 0.03 94 1016.5
20260904232320 28 203 0.0 3.2 0.00 0.00 0.03 86 1016.9
20260904231902 29 225 0.0 3.2 0.00 0.00 0.03 85 1016.9
20260904231447 31 203 3.2 3.2 0.00 0.00 0.03 81 1016.9
20260904231015 30 270 0.0 0.0 0.00 0.00 0.03 81 1016.9
20260904230544 31 225 0.0 0.0 0.00 0.00 0.03 79 1016.9
20260904230113 30 203 1.6 4.8 0.00 0.00 0.03 83 1016.9
20260904225641 31 203 4.8 4.8 0.00 0.00 0.03 77 1017.2
20260904225224 32 203 3.2 3.2 0.00 0.00 0.03 75 1017.2
20260904224321 32 0 3.2 3.2 0.00 0.00 0.03 74 1017.2
20260904223848 33 23 3.2 6.4 0.00 0.00 0.03 72 1017.2
20260904223402 32 0 4.8 6.4 0.00 0.00 0.03 74 1017.2
20260904222945 32 158 0.0 0.0 0.00 0.00 0.03 75 1017.2
20260904222528 31 180 1.6 3.2 0.00 0.00 0.03 78 1017.6
20260904222111 31 203 3.2 3.2 0.00 0.00 0.03 80 1017.6
20260904221639 30 180 4.8 4.8 0.00 0.00 0.03 82 1017.6
20260904220734 31 158 3.2 3.2 0.00 0.00 0.03 81 1017.9
20260904220312 31 180 0.0 3.2 0.00 0.00 0.03 80 1017.9
20260904215854 31 225 3.2 4.8 0.00 0.00 0.03 80 1017.9
20260904215438 31 203 3.2 3.2 0.00 0.00 0.03 80 1017.9
20260904215004 31 225 0.0 0.0 0.00 0.00 0.03 79 1017.9
20260904214548 31 45 0.0 1.6 0.00 0.00 0.03 80 1017.9
20260904214128 31 315 6.4 8.0 0.00 0.00 0.03 80 1017.9
20260904213655 31 68 4.8 6.4 0.00 0.00 0.03 81 1017.9
20260904213238 31 0 3.2 3.2 0.00 0.00 0.03 86 1017.2
20260904212804 30 248 1.6 4.8 0.00 0.00 0.03 90 1017.2
20260904212348 30 180 4.8 4.8 0.00 0.00 0.03 88 1017.2
20260904211027 32 225 0.0 3.2 0.00 0.00 0.03 78 1017.2
20260904210539 31 270 0.0 0.0 0.00 0.00 0.03 79 1017.2
20260904210123 32 315 3.2 3.2 0.00 0.00 0.03 78 1017.2
20260904205707 31 270 0.0 1.6 0.00 0.00 0.03 81 1016.9
20260904205236 31 23 0.0 0.0 0.00 0.00 0.03 80 1016.9
20260904204803 32 248 3.2 3.2 0.00 0.00 0.03 78 1016.9
20260904204345 31 23 0.0 1.6 0.00 0.00 0.03 80 1016.9
20260904203442 31 0 4.8 4.8 0.00 0.00 0.03 80 1016.9
20260904203010 31 180 1.6 3.2 0.00 0.00 0.03 82 1016.9
20260904202554 30 180 3.2 4.8 0.00 0.00 0.03 82 1017.2
20260904202138 30 270 3.2 3.2 0.00 0.00 0.03 82 1017.6
20260904201721 31 203 3.2 3.2 0.00 0.00 0.03 79 1017.6
20260904201304 31 225 0.0 0.0 0.00 0.00 0.03 76 1017.6
20260904200358 32 180 1.6 3.2 0.00 0.00 0.03 74 1017.9
20260904195925 32 0 0.0 0.0 0.00 0.00 0.03 71 1017.9
20260904194128 32 23 4.8 4.8 0.00 0.00 0.03 70 1017.6
20260904192751 32 158 0.0 3.2 0.00 0.00 0.03 71 1017.6
20260904191905 32 0 8.0 9.7 0.00 0.00 0.03 72 1017.9
20260904191434 31 45 4.8 4.8 0.00 0.00 0.03 72 1017.9
20260904191000 31 23 3.2 6.4 0.00 0.00 0.03 74 1017.9
20260904190546 32 23 4.8 9.7 0.00 0.00 0.03 72 1017.9
20260904190116 32 0 4.8 4.8 0.00 0.00 0.03 72 1017.9
20260904185645 32 45 3.2 11.3 0.00 0.00 0.03 71 1017.9
20260904185227 33 23 3.2 11.3 0.00 0.00 0.03 70 1017.9
20260904184739 34 45 19.3 19.3 0.00 0.00 0.03 67 1017.6
20260904183850 34 338 3.2 6.4 0.00 0.00 0.03 66 1017.6
20260904183433 34 0 3.2 4.8 0.00 0.00 0.03 64 1017.6
20260904183018 35 0 4.8 9.7 0.00 0.00 0.03 62 1017.6
20260904182600 35 23 9.7 12.9 0.00 0.00 0.03 61 1017.9
20260904182146 35 45 8.0 9.7 0.00 0.00 0.03 61 1017.6
20260904181256 36 23 9.7 11.3 0.00 0.00 0.03 60 1017.9
20260904180839 36 45 6.4 9.7 0.00 0.00 0.03 58 1017.6
20260904175904 36 338 3.2 9.7 0.00 0.00 0.03 58 1017.6
20260904175448 36 45 9.7 9.7 0.00 0.00 0.03 59 1017.6
20260904175015 36 23 4.8 6.4 0.00 0.00 0.03 57 1017.6
20260904174542 37 23 4.8 8.0 0.00 0.00 0.03 56 1017.9
20260904174109 37 45 6.4 8.0 0.00 0.00 0.03 57 1017.9
20260904173622 37 180 1.6 6.4 0.00 0.00 0.03 57 1018.2
20260904172713 37 0 8.0 12.9 0.00 0.00 0.03 58 1018.2
20260904172256 37 270 0.0 6.4 0.00 0.00 0.03 59 1018.2
20260904171839 37 45 8.0 12.9 0.00 0.00 0.03 58 1018.2
20260904171422 37 225 3.2 8.0 0.00 0.00 0.03 60 1018.2
20260904170502 37 23 6.4 8.0 0.00 0.00 0.03 60 1018.2
20260904170045 36 23 4.8 6.4 0.00 0.00 0.03 61 1018.6
20260904165628 37 23 3.2 8.0 0.00 0.00 0.03 61 1018.6
20260904165158 36 0 3.2 6.4 0.00 0.00 0.03 61 1018.2
20260904164740 36 248 1.6 6.4 0.00 0.00 0.03 64 1018.6
20260904164323 36 23 1.6 1.6 0.00 0.00 0.03 63 1018.6
20260904163851 37 68 4.8 4.8 0.00 0.00 0.03 63 1018.6